Wind_Speed
28 29 31 32 30 32 35 38 41 40 40 40 42 42 42 43 44 45 44 44 45 47 49 50 51 52 53 55 56 56 57 57 57 58 58 59 59 59 59 59 60 61 62 62
30 30 34 33 30 33 35 37 40 41 40 41 42 42 42 43 45 46 46 47 49 50 52 53 54 55 56 56 57 58 58 58 58 59 58 58 58 57 58 58 59 59 60 60
33 32 35 33 32 33 35 37 39 40 40 42 43 43 44 45 47 48 49 51 52 54 56 56 57 58 58 58 59 59 59 59 58 58 57 56 57 57 57 58 58 58 59 60
36 35 35 32 33 35 37 37 39 40 41 42 43 44 46 48 50 51 53 55 57 58 59 59 60 60 60 60 60 60 59 59 58 58 57 57 57 58 58 58 59 59 60 60
36 38 37 34 35 37 39 39 40 41 42 44 45 47 48 51 54 56 57 59 60 61 62 62 62 62 62 61 61 61 60 59 59 59 59 58 58 58 59 59 59 59 60 60
37 39 39 36 38 40 42 43 44 44 46 48 50 52 53 55 57 59 61 62 63 64 64 64 64 64 63 62 62 61 61 60 60 60 59 58 58 58 58 58 58 58 58 58
36 39 39 40 41 43 44 46 48 50 51 53 55 57 59 60 62 64 65 66 67 67 66 66 65 64 64 63 62 61 61 60 59 59 59 58 58 57 57 57 57 57 57 57
37 39 40 43 44 46 48 49 51 53 55 57 59 61 63 65 66 67 68 68 69 68 67 66 65 65 63 62 62 61 59 59 58 58 58 57 57 56 56 56 56 56 57 57
40 41 43 46 48 50 52 53 55 57 59 61 63 64 66 68 69 70 70 70 69 69 67 65 65 64 63 62 60 59 58 58 57 57 57 56 56 55 55 56 56 56 57 57
43 44 46 49 51 53 55 56 59 61 63 65 66 68 70 71 72 72 72 71 69 68 66 65 64 63 62 61 60 58 57 57 56 56 55 55 55 55 56 56 56 57 57 56
47 48 50 52 54 56 58 60 63 65 67 68 70 71 72 73 73 72 71 70 69 68 66 65 63 62 61 60 59 57 56 56 55 54 54 54 54 54 54 55 56 56 56 56
50 52 54 56 58 60 62 64 66 68 69 70 72 73 74 73 72 71 70 69 68 67 66 64 62 61 59 59 58 56 55 54 53 53 53 52 52 52 53 54 55 55 55 54
54 56 58 59 61 63 65 67 69 70 71 73 73 73 73 72 70 69 69 68 67 66 64 63 60 58 57 56 55 54 53 52 51 51 51 52 52 52 52 52 52 52 51 51
57 59 60 62 64 66 67 69 70 71 72 72 72 72 71 70 68 67 66 66 65 63 62 60 58 56 55 54 53 52 51 50 50 50 51 51 51 52 52 50 49 49 49 49
60 62 63 65 66 68 69 70 71 71 71 71 70 69 68 67 66 65 64 64 63 61 59 58 55 53 52 51 50 49 49 49 49 50 50 50 50 49 50 50 49 49 47 46
63 64 65 66 67 69 70 70 70 70 69 68 67 66 65 64 64 63 63 62 60 58 56 54 52 50 49 49 48 47 47 47 48 48 48 48 48 48 49 49 48 47 45 44
64 64 65 66 67 68 68 68 68 67 66 65 64 63 62 62 61 60 59 58 57 55 53 51 49 48 47 46 46 45 45 45 45 46 46 46 46 46 47 46 45 44 43 42
65 65 66 67 67 67 66 65 65 64 62 62 61 60 59 59 58 57 55 53 52 50 49 48 47 45 44 44 43 43 43 43 43 43 43 44 44 44 44 43 43 42 41 40
63 64 64 64 64 64 63 62 61 60 59 59 58 57 56 55 55 53 52 51 50 47 45 44 43 42 41 41 41 41 41 41 41 41 41 42 42 42 42 42 41 40 39 37
62 62 62 62 61 60 59 58 58 57 56 56 55 54 53 53 52 51 50 49 48 46 44 42 40 39 39 39 39 40 39 39 39 39 39 40 40 40 40 39 38 37 36 35
61 60 59 58 57 57 56 56 55 54 54 53 53 53 52 50 50 49 48 46 44 43 42 40 39 38 37 37 38 38 37 37 37 37 38 39 38 38 38 38 37 35 34 34
58 57 56 56 55 54 53 53 53 52 52 52 51 51 50 48 47 46 45 44 42 40 39 37 37 36 36 36 36 36 35 35 36 36 36 37 37 38 37 36 35 33 33 32
55 54 54 53 53 51 50 50 51 50 50 49 49 49 48 46 45 44 41 39 39 38 37 36 35 35 34 34 34 34 34 34 34 35 35 36 37 37 35 34 32 32 31 30
53 52 51 51 51 50 48 48 48 48 48 47 47 47 46 44 42 41 40 38 37 36 35 34 33 33 33 33 33 32 32 32 33 33 33 35 36 35 33 31 31 30 29 28
51 50 50 50 49 48 47 46 46 46 46 45 45 44 44 43 41 39 37 36 36 35 33 32 32 32 31 31 31 30 30 31 31 31 33 34 34 32 31 29 29 28 28 28
49 49 48 48 47 46 45 45 44 45 45 44 43 42 42 41 39 37 36 35 34 33 32 31 30 30 30 30 29 29 29 29 30 31 32 33 32 30 29 28 28 27 27 26
47 47 46 45 44 44 43 43 44 44 44 43 41 40 39 38 37 35 34 33 32 31 30 30 29 28 28 28 28 27 27 28 29 30 31 31 30 28 27 27 26 26 25 24
Wind_Direction
292 294 294 297 302 302 301 303 303 306 307 308 307 310 311 311 310 310 311 311 311 311 311 311 311 310 310 309 308 307 306 304 302 301 300 299 297 296 295 295 294 294 295 295
291 294 293 296 300 298 299 301 302 304 307 307 309 310 311 310 309 310 310 310 309 310 310 311 310 310 310 309 309 308 307 305 304 302 301 300 299 299 298 297 296 296 296 296
292 292 293 297 299 299 299 300 302 304 306 308 309 310 310 309 309 309 309 309 309 309 310 310 310 310 310 309 308 308 307 306 305 303 302 301 300 299 299 298 298 297 297 297
293 294 294 301 301 300 299 301 302 304 306 307 308 308 308 308 308 308 308 309 309 309 310 310 310 309 309 309 308 307 307 306 305 304 303 302 301 300 300 299 299 298 298 298
294 296 297 302 302 301 301 302 304 305 305 306 306 307 308 307 308 308 308 309 309 309 309 309 309 309 309 308 307 307 306 306 305 304 303 303 302 301 301 300 300 300 300 299
293 295 298 303 302 301 302 303 304 305 306 307 307 307 307 307 307 307 307 307 308 308 309 309 308 308 308 308 307 306 306 306 305 304 304 303 303 302 301 301 301 301 301 301
292 294 298 300 299 301 302 304 306 307 307 308 308 308 307 307 307 307 307 307 308 308 308 308 308 307 307 307 306 306 306 306 305 305 305 304 304 303 303 303 303 302 302 302
291 294 298 298 299 300 302 303 305 306 306 306 306 305 306 306 306 306 307 307 307 308 308 308 307 307 307 306 306 306 306 306 306 306 305 305 305 305 305 305 304 304 303 303
292 295 296 297 298 300 301 303 304 304 304 303 304 304 304 305 305 306 306 307 307 307 307 307 306 306 306 306 306 306 306 306 306 306 306 306 306 307 306 306 306 306 305 305
290 293 294 295 297 299 300 301 302 302 302 303 303 304 304 305 305 306 306 307 307 306 306 306 305 305 305 306 306 306 306 306 306 307 307 307 308 308 308 308 308 308 307 307
291 293 294 296 298 298 299 300 301 302 302 303 303 303 304 305 305 306 307 307 306 306 306 306 305 305 305 305 305 306 306 307 308 308 308 309 309 309 310 310 310 310 309 309
293 295 296 297 298 298 299 300 301 301 302 302 303 303 304 305 306 306 306 306 306 306 306 305 305 305 304 305 305 306 307 308 309 309 310 310 310 311 312 312 312 312 312 311
293 295 296 297 298 299 299 300 301 301 302 302 303 304 305 305 306 306 306 306 306 306 306 306 306 305 305 305 306 307 309 309 310 311 312 312 312 313 313 314 314 314 314 313
294 295 296 297 298 299 299 300 301 301 302 302 303 304 304 305 306 306 306 307 307 307 307 306 306 306 306 306 307 308 310 311 312 313 313 314 314 315 316 316 316 316 316 314
295 296 297 297 298 299 299 300 301 301 302 303 303 304 304 305 305 306 307 307 307 307 307 306 306 307 307 307 308 310 311 312 313 314 315 315 316 317 318 318 318 318 317 316
295 296 297 297 298 299 299 300 301 302 302 303 303 304 304 305 306 307 308 308 308 308 307 307 307 307 308 309 310 312 312 313 314 315 316 317 318 319 320 320 320 320 320 319
296 296 297 297 298 299 300 301 302 302 303 303 304 305 305 306 307 308 308 309 309 309 308 308 308 309 309 311 312 313 313 314 315 317 318 319 320 321 322 322 323 323 323 323
296 297 297 298 299 300 301 302 303 303 304 305 305 306 306 307 307 308 309 309 309 309 309 309 310 310 311 313 314 315 315 316 318 319 320 321 322 323 324 325 325 326 326 325
297 297 298 299 300 300 301 302 303 303 304 305 306 307 307 308 308 308 310 310 310 310 311 311 311 311 313 314 315 316 317 318 319 321 322 323 324 325 326 326 326 327 328 328
297 297 298 299 300 301 301 302 303 304 305 306 306 307 307 308 308 309 310 311 312 313 313 312 312 313 314 316 317 318 319 320 321 323 324 325 326 327 328 329 329 329 330 330
297 297 298 299 300 301 301 302 303 304 305 306 306 307 308 308 308 309 310 311 312 313 314 314 313 314 315 316 318 319 320 321 323 324 325 326 328 329 330 330 330 330 331 331
297 297 298 298 299 300 301 302 303 304 305 305 306 306 307 308 309 309 310 311 313 314 314 313 313 314 315 317 319 319 320 322 323 324 325 327 328 329 330 331 331 332 333 334
296 297 298 298 299 300 301 302 303 304 305 306 306 307 308 309 310 310 310 311 312 313 313 312 312 314 315 317 319 319 321 322 324 325 326 328 330 331 331 332 332 333 334 336
296 296 297 298 299 300 300 301 302 303 304 306 307 307 308 308 309 309 310 311 312 313 313 312 312 314 315 317 318 319 321 322 324 325 327 329 331 331 332 333 334 335 337 338
295 295 296 297 298 299 299 300 301 302 303 305 306 307 308 309 309 309 309 310 311 312 312 312 312 313 315 317 318 319 320 322 325 326 328 330 332 332 333 334 335 336 338 339
293 294 295 296 298 298 299 299 300 302 303 305 306 306 307 308 309 309 309 310 311 311 311 311 311 312 314 316 318 319 320 322 325 327 329 330 332 332 333 334 336 337 339 341
292 293 295 296 296 297 298 300 301 303 304 305 306 306 307 307 308 308 308 309 309 310 310 310 310 311 314 316 317 318 319 322 325 327 329 330 332 332 333 335 337 339 340 342
Height
5770 5768 5765 5764 5763 5760 5755 5751 5747 5744 5741 5738 5733 5729 5725 5720 5715 5709 5705 5699 5694 5688 5682 5676 5669 5662 5655 5648 5641 5633 5626 5618 5611 5604 5597 5590 5583 5577 5570 5564 5558 5552 5546 5540
5763 5761 5757 5756 5756 5752 5748 5744 5739 5735 5733 5728 5724 5720 5716 5710 5705 5700 5694 5689 5683 5676 5670 5663 5656 5649 5642 5635 5627 5619 5611 5603 5596 5588 5581 5574 5568 5561 5555 5548 5542 5535 5529 5523
5754 5753 5749 5749 5748 5744 5740 5736 5732 5728 5725 5719 5715 5710 5706 5700 5695 5689 5683 5677 5671 5664 5658 5651 5643 5636 5628 5621 5613 5604 5596 5588 5580 5573 5566 5559 5552 5546 5539 5533 5526 5519 5513 5506
5744 5743 5741 5744 5739 5734 5730 5727 5723 5719 5715 5711 5706 5701 5696 5689 5683 5677 5671 5665 5658 5651 5644 5637 5629 5622 5614 5606 5598 5589 5581 5573 5565 5558 5551 5544 5537 5530 5523 5517 5510 5503 5496 5489
5735 5732 5730 5733 5729 5723 5719 5717 5714 5709 5705 5701 5696 5691 5686 5678 5671 5665 5658 5651 5644 5637 5630 5622 5615 5607 5599 5591 5582 5574 5566 5558 5550 5542 5535 5528 5521 5514 5506 5500 5493 5486 5479 5472
5727 5723 5722 5723 5718 5712 5709 5706 5703 5698 5693 5689 5683 5679 5674 5666 5659 5652 5645 5637 5630 5623 5615 5607 5599 5591 5583 5575 5567 5559 5551 5543 5535 5526 5519 5512 5505 5497 5490 5483 5477 5470 5463 5455
5718 5714 5713 5712 5707 5703 5700 5696 5691 5686 5681 5676 5670 5664 5658 5651 5644 5637 5630 5622 5614 5607 5599 5591 5582 5574 5567 5559 5551 5543 5535 5527 5519 5511 5503 5496 5489 5481 5474 5467 5460 5453 5447 5439
5710 5707 5707 5700 5696 5693 5689 5684 5679 5674 5669 5663 5657 5650 5644 5637 5629 5622 5614 5606 5598 5591 5583 5574 5565 5558 5551 5543 5535 5527 5519 5511 5503 5495 5487 5480 5473 5466 5458 5451 5444 5437 5430 5423
5700 5699 5695 5689 5684 5680 5676 5672 5667 5662 5656 5650 5643 5636 5629 5622 5614 5606 5598 5590 5582 5574 5567 5559 5549 5541 5534 5527 5519 5512 5504 5496 5488 5481 5473 5465 5457 5450 5443 5435 5428 5421 5413 5406
5689 5688 5683 5678 5674 5670 5665 5660 5654 5648 5642 5635 5628 5621 5613 5606 5598 5590 5581 5573 5565 5557 5550 5543 5534 5526 5517 5511 5503 5496 5489 5481 5474 5466 5459 5451 5443 5435 5428 5420 5412 5404 5397 5389
5677 5675 5671 5667 5662 5657 5652 5646 5640 5634 5626 5619 5612 5605 5597 5589 5581 5573 5565 5557 5548 5540 5533 5526 5518 5511 5502 5495 5488 5481 5474 5467 5459 5452 5444 5437 5430 5421 5413 5405 5396 5388 5380 5372
5666 5662 5658 5654 5648 5643 5638 5632 5625 5618 5611 5603 5595 5588 5580 5572 5564 5556 5548 5540 5532 5525 5517 5510 5502 5495 5487 5480 5473 5466 5460 5453 5445 5438 5431 5423 5416 5409 5400 5391 5382 5373 5364 5356
5653 5649 5644 5640 5634 5628 5623 5616 5609 5602 5595 5587 5579 5571 5563 5556 5548 5540 5532 5523 5516 5509 5501 5494 5487 5480 5473 5466 5459 5452 5445 5439 5432 5424 5417 5410 5402 5395 5388 5380 5370 5360 5351 5342
5639 5634 5630 5625 5619 5613 5607 5600 5593 5586 5578 5570 5562 5554 5547 5539 5532 5524 5516 5508 5500 5493 5486 5478 5472 5466 5458 5452 5445 5439 5432 5425 5418 5412 5404 5397 5389 5381 5373 5366 5358 5350 5340 5330
5624 5619 5614 5609 5603 5597 5590 5584 5577 5569 5562 5554 5546 5538 5530 5523 5516 5509 5501 5493 5486 5479 5471 5464 5458 5452 5445 5439 5433 5426 5420 5413 5406 5399 5392 5384 5377 5369 5361 5353 5345 5336 5328 5319
5609 5603 5598 5592 5587 5580 5574 5567 5560 5553 5545 5538 5530 5523 5515 5508 5501 5494 5486 5478 5471 5464 5457 5451 5445 5439 5433 5426 5421 5415 5408 5401 5394 5388 5380 5373 5365 5357 5349 5341 5333 5324 5316 5308
5593 5587 5582 5576 5570 5564 5557 5550 5543 5536 5529 5522 5515 5508 5501 5494 5487 5481 5474 5466 5458 5451 5443 5437 5432 5427 5421 5415 5409 5403 5397 5391 5384 5377 5370 5362 5354 5347 5339 5330 5322 5314 5306 5298
5575 5570 5565 5559 5553 5547 5541 5534 5527 5520 5513 5506 5500 5493 5486 5480 5473 5467 5460 5454 5447 5440 5432 5426 5420 5415 5410 5404 5398 5392 5386 5380 5374 5367 5360 5353 5345 5337 5329 5321 5313 5306 5298 5290
5559 5554 5548 5543 5537 5531 5525 5519 5512 5506 5499 5492 5486 5480 5473 5466 5459 5453 5447 5441 5434 5428 5423 5416 5410 5405 5399 5394 5388 5382 5377 5371 5365 5358 5351 5344 5337 5329 5321 5314 5306 5298 5291 5283
5543 5538 5533 5527 5521 5516 5510 5504 5498 5492 5486 5479 5473 5467 5461 5455 5448 5442 5436 5430 5422 5416 5412 5406 5401 5395 5390 5385 5379 5374 5368 5362 5356 5350 5343 5336 5329 5322 5314 5307 5299 5292 5285 5277
5528 5523 5517 5512 5508 5502 5496 5490 5484 5479 5473 5466 5460 5454 5448 5443 5436 5430 5424 5420 5414 5407 5402 5396 5391 5386 5381 5376 5371 5365 5360 5354 5348 5342 5336 5329 5323 5315 5308 5301 5294 5286 5279 5272
5512 5507 5503 5498 5493 5489 5483 5477 5471 5466 5460 5454 5448 5442 5436 5431 5426 5420 5414 5408 5403 5398 5392 5387 5382 5378 5373 5368 5363 5358 5352 5347 5341 5335 5329 5323 5316 5309 5302 5295 5288 5281 5275 5268
5497 5493 5488 5483 5479 5475 5471 5465 5459 5453 5448 5442 5436 5430 5425 5420 5414 5409 5404 5399 5393 5388 5383 5378 5374 5369 5365 5360 5355 5350 5345 5340 5334 5329 5323 5317 5310 5303 5297 5290 5283 5277 5270 5264
5483 5478 5474 5469 5465 5461 5457 5453 5447 5442 5436 5431 5425 5419 5413 5409 5404 5399 5393 5388 5384 5379 5375 5370 5366 5361 5357 5353 5348 5343 5338 5333 5328 5322 5317 5311 5305 5298 5292 5285 5279 5273 5267 5261
5468 5464 5460 5456 5452 5447 5443 5439 5435 5430 5425 5420 5415 5409 5403 5398 5393 5389 5384 5379 5375 5370 5366 5362 5358 5354 5349 5345 5341 5336 5332 5327 5322 5317 5311 5306 5299 5293 5287 5281 5276 5270 5264 5258
5454 5450 5447 5443 5438 5434 5430 5426 5422 5418 5413 5409 5405 5399 5393 5388 5383 5378 5374 5370 5366 5362 5358 5354 5350 5346 5343 5338 5334 5330 5325 5321 5316 5311 5306 5300 5295 5289 5283 5278 5272 5267 5261 5255
5440 5437 5433 5430 5426 5422 5418 5414 5410 5406 5401 5397 5393 5388 5383 5378 5374 5369 5365 5362 5358 5354 5350 5346 5343 5339 5336 5332 5328 5324 5320 5315 5311 5306 5301 5296 5290 5285 5280 5275 5269 5264 5259 5253